This is the latest recevied weather packets stored in our database for station/object MM1PTT-13. If no packets are shown the sender has not sent any weather packets the latest 1 day(s).
| Time | Temp. | Humidity | Pressure | Rain* | Wind** | Luminosity | Snow |
|---|---|---|---|---|---|---|---|
| 1777976443 | 11.67° C | 53% | 986.5 hPa | 0 mm | 3.13 m/s, 65° | 412 W/m² | - |
| 1777976142 | 12.22° C | 55% | 986.5 hPa | 0 mm | 1.79 m/s, 2° | 474 W/m² | - |
| 1777975842 | 11.67° C | 56% | 986.5 hPa | 0 mm | 1.34 m/s, 73° | 499 W/m² | - |
| 1777975543 | 11.11° C | 52% | 986.5 hPa | 0 mm | 1.34 m/s, 60° | 487 W/m² | - |
| 1777975243 | 11.67° C | 52% | 986.5 hPa | 0 mm | 0.89 m/s, 293° | 311 W/m² | - |
| 1777974942 | 11.67° C | 53% | 986.5 hPa | 0 mm | 0.45 m/s, 13° | 283 W/m² | - |
| 1777974642 | 11.67° C | 51% | 986.5 hPa | 0 mm | 0 m/s | 358 W/m² | - |
| 1777974342 | 10.56° C | 53% | 986.5 hPa | 0 mm | 0.45 m/s, 61° | 338 W/m² | - |
| 1777974044 | 11.11° C | 52% | 986.5 hPa | 0 mm | 1.34 m/s, 66° | 383 W/m² | - |
| 1777973742 | 11.11° C | 55% | 986.5 hPa | 0 mm | 0.45 m/s, 52° | 386 W/m² | - |
| 1777973444 | 11.11° C | 53% | 986.5 hPa | 0 mm | 0.89 m/s, 324° | 365 W/m² | - |
| 1777973144 | 11.11° C | 54% | 986.5 hPa | 0 mm | 0.45 m/s, 50° | 363 W/m² | - |
| 1777972843 | 10.56° C | 54% | 986.5 hPa | 0 mm | 1.34 m/s, 18° | 336 W/m² | - |
| 1777972543 | 10.56° C | 59% | 986.5 hPa | 0 mm | 1.34 m/s, 46° | 322 W/m² | - |
| 1777972242 | 10.56° C | 58% | 986.5 hPa | 0 mm | 1.79 m/s, 45° | 315 W/m² | - |
| 1777971943 | 10.56° C | 57% | 986.5 hPa | 0 mm | 2.24 m/s, 6° | 257 W/m² | - |
| 1777971642 | 10.56° C | 57% | 986.5 hPa | 0 mm | 0.89 m/s, 35° | 217 W/m² | - |
| 1777971342 | 10.56° C | 56% | 986.5 hPa | 0 mm | 0.45 m/s, 32° | 180 W/m² | - |
| 1777971042 | 10.56° C | 57% | 986.5 hPa | 0 mm | 0.89 m/s, 28° | 193 W/m² | - |
| 1777970742 | 10.56° C | 59% | 986.1 hPa | 0 mm | 0.89 m/s, 2° | 259 W/m² | - |
| 1777970445 | 10° C | 58% | 986.1 hPa | 0 mm | 1.34 m/s, 69° | 247 W/m² | - |
| 1777970143 | 10° C | 59% | 986.1 hPa | 0 mm | 1.79 m/s, 49° | 293 W/m² | - |
| 1777969843 | 10° C | 61% | 986.5 hPa | 0 mm | 1.34 m/s, 42° | 276 W/m² | - |
| 1777969542 | 10° C | 61% | 986.1 hPa | 0 mm | 0.89 m/s, 327° | 215 W/m² | - |
| 1777969242 | 10° C | 64% | 986.1 hPa | 0 mm | 0.89 m/s, 20° | 165 W/m² | - |
* Rain latest hour (hover to see other rain measurements)
** Current wind speed in m/s (hover to see current wind gust speed)